TimeCDT,TemperatureF,Dew PointF,Humidity,Sea Level PressureIn,VisibilityMPH,Wind Direction,Wind SpeedMPH,Gust SpeedMPH,PrecipitationIn,Events,Conditions,WindDirDegrees,DateUTC
12:53 AM,39.9,24.1,53,30.32,10.0,NNW,6.9,-,N/A,,Clear,330,2013-03-14 05:53:00
1:53 AM,39.0,23.0,53,30.32,10.0,North,6.9,-,N/A,,Clear,350,2013-03-14 06:53:00
2:53 AM,39.9,21.9,49,30.32,10.0,North,10.4,-,N/A,,Clear,350,2013-03-14 07:53:00
3:53 AM,39.0,21.9,50,30.32,10.0,North,10.4,-,N/A,,Clear,350,2013-03-14 08:53:00
4:53 AM,37.0,21.9,54,30.33,10.0,NNW,6.9,-,N/A,,Clear,340,2013-03-14 09:53:00
5:53 AM,35.1,21.0,57,30.35,10.0,Calm,Calm,-,N/A,,Clear,0,2013-03-14 10:53:00
6:53 AM,32.0,21.9,66,30.38,10.0,NNW,4.6,-,N/A,,Clear,340,2013-03-14 11:53:00
7:53 AM,36.0,23.0,59,30.42,10.0,North,4.6,-,N/A,,Clear,350,2013-03-14 12:53:00
8:53 AM,41.0,21.0,45,30.42,10.0,NNE,6.9,-,N/A,,Clear,30,2013-03-14 13:53:00
9:53 AM,44.1,18.0,35,30.43,10.0,North,11.5,-,N/A,,Clear,10,2013-03-14 14:53:00
10:53 AM,48.9,16.0,27,30.43,10.0,North,11.5,-,N/A,,Clear,360,2013-03-14 15:53:00
11:53 AM,51.1,17.1,26,30.40,10.0,Variable,4.6,-,N/A,,Clear,0,2013-03-14 16:53:00
12:53 PM,54.0,17.1,23,30.36,10.0,North,6.9,-,N/A,,Clear,360,2013-03-14 17:53:00
1:53 PM,57.0,17.1,21,30.34,10.0,NW,11.5,18.4,N/A,,Clear,320,2013-03-14 18:53:00
2:53 PM,59.0,16.0,19,30.32,10.0,North,12.7,20.7,N/A,,Clear,360,2013-03-14 19:53:00
3:53 PM,59.0,15.1,18,30.30,10.0,North,10.4,-,N/A,,Clear,350,2013-03-14 20:53:00
4:53 PM,59.0,14.0,17,30.28,10.0,North,8.1,-,N/A,,Clear,350,2013-03-14 21:53:00
5:53 PM,57.9,17.1,20,30.28,10.0,NW,9.2,-,N/A,,Clear,320,2013-03-14 22:53:00
6:53 PM,55.0,19.9,25,30.28,10.0,Calm,Calm,-,N/A,,Clear,0,2013-03-14 23:53:00
7:53 PM,46.9,30.0,52,30.28,10.0,Calm,Calm,-,N/A,,Clear,0,2013-03-15 00:53:00
8:53 PM,44.1,32.0,63,30.29,10.0,Calm,Calm,-,N/A,,Clear,0,2013-03-15 01:53:00
9:53 PM,39.0,33.1,79,30.30,10.0,Calm,Calm,-,N/A,,Clear,0,2013-03-15 02:53:00
10:53 PM,37.9,30.9,76,30.30,10.0,Calm,Calm,-,N/A,,Clear,0,2013-03-15 03:53:00
11:53 PM,37.0,32.0,82,30.30,10.0,Calm,Calm,-,N/A,,Clear,0,2013-03-15 04:53:00